RH
57 59 68 75 79 81 86 88 88 87 86 86 86 85 86 88 87 86 85 85 88 89 87 86 86 87 87 88 92 95 92 89 89 88 83 77 72 69 66 63 61 61 64 69 72 75 76 75 74 72 70 69 69 69 71 72 74 76 77 77 75 72 70 71 70 69 70 77 82 85 86 88 89 91 94 92 89 88 89 88 86 84 81 74 68 65 64 70 74 79 86 86 85 85 87 94 96 95 91 90 92 92 89
55 58 65 71 76 80 87 88 86 85 87 88 88 87 85 88 88 86 86 87 89 91 92 89 90 92 93 94 96 97 95 89 87 87 83 76 71 69 67 65 64 64 64 66 69 72 75 74 72 70 68 67 68 69 71 73 75 75 74 74 72 70 68 72 73 74 75 80 83 85 85 88 90 92 94 93 92 91 92 90 88 86 85 84 82 77 69 65 62 63 70 79 82 82 83 93 97 97 97 98 97 96 95
62 65 60 67 73 79 86 88 87 86 85 84 85 86 87 87 87 87 88 88 91 94 94 88 88 89 90 92 93 94 94 90 87 84 80 75 72 70 68 67 67 65 64 64 67 70 74 72 69 67 66 67 68 70 72 74 75 75 73 72 69 66 63 72 77 79 80 84 84 83 82 85 88 90 92 92 90 89 89 89 87 85 83 83 85 85 80 76 73 72 74 80 83 85 86 93 96 97 94 93 94 95 96
67 68 61 65 72 79 87 88 88 86 83 83 84 87 89 87 86 87 89 89 90 91 92 88 87 87 88 88 88 88 88 87 86 82 77 75 73 71 69 68 67 66 64 64 67 70 72 69 66 64 65 68 71 72 74 75 74 73 71 69 64 60 59 71 77 80 80 83 84 82 78 81 84 86 90 87 84 82 84 85 87 89 89 86 87 88 88 86 85 84 82 82 83 86 91 92 93 92 88 89 92 95 96
67 71 70 71 76 83 91 92 90 87 83 83 86 89 91 90 89 89 90 92 92 91 88 88 86 84 82 81 81 80 79 78 77 76 75 75 74 72 70 68 66 65 63 64 68 70 69 65 63 62 64 68 70 72 75 75 74 71 68 62 56 54 61 71 79 83 79 84 86 85 79 77 79 82 84 81 79 80 82 86 90 92 93 90 89 90 92 93 94 94 90 90 88 87 91 91 91 90 88 90 93 95 92
65 72 79 78 81 87 93 94 93 91 89 88 87 87 86 87 87 89 94 92 91 89 85 82 79 78 78 78 77 77 76 75 75 75 75 75 74 73 71 67 64 62 63 66 69 69 65 62 61 61 63 65 67 69 71 71 70 67 61 52 47 50 62 69 73 77 82 82 83 81 76 75 76 78 81 80 79 82 87 90 93 95 97 91 90 92 96 96 95 94 93 87 88 92 95 92 91 90 89 89 88 87 87
72 76 80 81 85 90 93 93 92 91 90 90 90 89 85 87 88 89 93 91 88 83 77 78 78 79 79 78 78 77 76 76 76 75 75 74 74 73 70 65 62 61 64 67 67 64 60 58 58 59 61 63 64 65 66 66 64 60 52 43 40 46 62 70 75 79 83 85 84 81 80 84 83 80 79 81 83 86 90 94 96 96 92 89 92 98 100 97 93 90 88 87 87 88 92 93 93 91 89 90 90 89 88
75 79 85 86 88 91 91 88 89 90 91 87 87 88 87 90 91 91 90 85 81 79 79 79 79 79 78 78 78 78 77 77 76 75 75 75 74 72 68 62 60 61 65 65 62 59 55 54 55 57 59 60 61 62 64 64 62 57 47 37 35 42 59 73 77 79 84 83 82 82 85 88 84 79 77 82 83 85 89 93 92 88 82 83 86 91 97 91 87 83 82 82 85 87 88 91 92 91 89 89 91 93 95
78 82 84 87 90 93 93 90 90 90 89 86 87 89 91 90 90 89 83 80 79 79 79 79 78 77 76 76 77 77 77 77 76 76 75 74 72 69 63 59 58 60 62 59 56 54 52 51 53 55 57 57 58 59 61 62 61 56 45 33 30 37 54 72 77 76 80 79 76 77 84 85 83 80 78 80 81 84 89 88 85 83 85 86 88 90 90 88 87 86 84 84 86 89 89 91 92 91 89 87 88 92 97
79 81 81 87 92 96 97 94 92 91 91 90 90 91 91 90 86 83 80 80 79 79 78 76 75 73 72 73 74 75 76 76 75 75 73 72 69 64 59 56 57 58 56 53 51 50 49 49 50 52 54 54 54 54 54 58 59 55 45 31 27 33 49 71 77 75 72 77 78 79 84 85 86 86 82 80 81 84 86 84 81 80 86 87 87 86 84 87 88 89 89 89 90 92 93 95 95 94 91 91 94 97 100
74 76 81 86 91 95 97 95 94 93 94 93 93 91 87 85 82 81 80 79 78 76 74 73 71 70 69 70 71 73 73 73 72 71 69 66 63 59 55 55 54 53 51 48 47 47 46 47 48 49 51 52 52 52 51 54 56 54 46 32 26 29 46 68 76 75 71 76 80 84 84 86 87 87 84 82 83 84 84 79 77 78 83 83 81 80 82 84 85 85 87 91 93 94 95 95 95 94 92 91 91 93 96
71 76 83 86 88 90 93 92 90 90 91 91 90 87 83 82 81 80 79 77 74 71 70 69 67 67 67 68 69 69 68 67 65 64 62 59 56 54 53 52 51 49 46 44 43 44 45 45 46 47 48 49 50 51 52 53 54 53 48 34 26 28 46 67 76 77 74 77 80 83 84 86 86 86 87 87 85 83 79 75 76 81 88 86 83 79 79 81 81 82 84 86 89 91 93 94 94 93 91 90 90 89 89
73 79 86 88 88 88 89 87 85 85 86 86 84 82 81 81 81 79 77 73 70 68 66 65 64 64 63 63 61 59 58 56 55 53 53 51 50 49 49 49 47 45 43 41 40 40 42 43 44 44 45 46 47 50 53 54 55 54 49 34 26 30 50 68 76 77 75 77 80 82 82 84 83 83 87 87 85 83 82 77 80 86 89 87 84 80 78 80 80 80 82 82 84 86 88 91 92 92 91 89 88 87 85
74 78 83 86 86 86 85 83 82 82 82 82 82 81 82 81 80 78 76 72 69 66 64 62 61 59 57 54 51 49 47 46 45 44 43 44 45 45 45 45 44 43 41 39 38 38 39 40 40 41 42 44 46 49 52 54 56 55 47 33 28 35 55 70 76 77 77 78 79 81 81 81 81 82 85 84 84 84 84 78 82 88 91 87 83 80 80 82 81 81 82 81 83 85 88 88 88 88 87 87 87 86 85
70 73 76 79 81 82 82 81 81 81 81 81 81 82 82 82 80 78 76 72 68 64 60 58 56 54 51 49 47 45 44 42 41 40 39 39 40 41 42 42 41 41 40 39 38 37 37 37 37 38 38 41 44 47 51 53 55 53 44 33 32 43 62 72 77 78 78 78 79 80 79 80 80 81 82 82 83 84 83 80 85 90 91 88 85 83 82 82 84 85 84 83 84 87 88 87 85 84 81 84 86 87 85
67 68 71 74 77 78 79 79 79 80 80 81 82 82 83 82 80 78 75 71 66 60 55 53 52 51 50 49 48 46 44 43 41 40 38 37 38 39 39 39 39 38 38 37 37 36 35 35 35 35 35 37 40 44 49 52 53 50 40 33 37 50 68 75 78 78 80 78 78 79 80 81 80 80 81 81 82 82 83 82 86 90 89 89 88 86 84 83 85 85 83 84 85 86 88 84 80 77 76 80 84 86 87
65 67 70 72 74 76 76 77 78 79 80 81 82 82 82 81 79 76 73 69 61 54 50 50 50 50 50 49 48 47 44 42 40 39 38 37 37 37 38 37 37 36 35 35 34 34 33 32 32 32 32 34 37 41 46 50 50 45 35 32 39 54 72 77 78 78 80 81 80 80 81 81 81 81 80 80 80 80 81 82 86 89 89 90 90 89 87 87 87 86 83 87 87 87 85 82 78 74 73 76 79 82 85
66 68 70 72 73 74 75 75 76 78 79 81 81 81 80 78 76 73 70 63 55 49 47 48 48 48 47 47 46 45 42 40 39 37 36 35 36 36 36 36 34 33 32 31 31 30 30 29 29 29 30 32 35 39 44 47 46 40 31 31 41 57 75 78 79 79 79 80 81 81 82 82 82 81 79 79 79 80 80 82 84 87 89 90 89 89 89 89 88 87 85 88 89 88 87 86 84 81 79 79 79 80 81
67 69 71 72 73 74 74 74 75 76 78 79 80 79 77 74 71 68 63 55 49 45 45 45 45 45 43 41 40 39 38 37 37 35 34 33 33 34 34 33 31 29 28 28 28 27 27 26 26 27 29 31 34 38 43 45 43 37 28 29 41 58 76 77 79 79 78 80 81 82 83 82 81 81 80 81 82 82 81 83 84 85 87 88 87 86 88 87 86 84 84 87 87 87 88 88 87 86 85 84 83 82 81
68 70 72 73 74 74 74 74 75 76 77 79 78 77 73 69 64 60 55 50 46 44 43 42 42 41 39 37 35 35 36 36 35 33 32 32 32 32 32 30 28 25 26 26 26 26 25 25 25 27 29 31 34 38 42 44 41 35 27 28 42 61 77 78 78 78 78 80 81 82 84 83 82 82 83 83 83 83 82 82 82 82 82 83 83 84 84 83 83 82 82 82 82 83 85 85 85 85 85 85 84 84 83
68 71 74 75 75 75 74 74 75 76 78 79 77 73 67 61 56 52 50 47 45 43 41 39 37 36 36 35 35 35 37 38 38 37 34 33 32 31 29 27 25 23 24 25 25 25 25 25 26 28 29 31 34 38 42 42 40 34 26 26 42 62 76 78 79 77 76 79 81 82 83 83 83 83 84 83 83 82 81 81 80 79 79 80 81 81 80 80 80 80 80 80 80 80 81 82 82 82 83 83 83 82 82
67 71 73 75 75 75 75 75 76 77 79 77 73 67 60 55 51 49 47 46 44 42 38 36 35 34 35 36 37 38 40 42 42 41 38 35 32 29 26 25 23 23 23 24 24 25 25 26 27 28 29 31 34 37 40 41 38 33 26 24 39 59 74 78 79 77 76 77 79 80 81 81 81 82 82 82 82 82 81 81 80 79 78 79 79 79 78 79 79 79 79 78 78 78 78 79 79 80 80 80 81 81 81
65 68 72 74 75 75 74 75 76 76 76 73 67 61 56 54 51 49 46 44 42 40 38 37 38 38 37 38 39 41 42 40 36 33 30 29 27 24 23 23 23 23 24 24 25 25 25 26 27 28 28 31 33 35 38 38 35 31 25 22 34 53 71 77 78 77 77 76 76 77 78 79 79 79 79 79 79 79 79 79 78 77 75 76 77 77 77 77 78 78 77 77 77 76 77 77 78 78 79 79 79 79 79
62 65 69 72 73 74 74 74 74 73 71 67 62 58 56 54 53 49 45 41 39 38 39 41 43 44 42 41 41 41 39 33 28 24 22 22 21 21 21 22 23 24 25 26 26 26 25 25 26 26 28 30 32 34 35 35 33 30 25 21 28 43 65 74 77 76 76 75 75 74 75 75 76 76 76 76 76 76 76 76 76 75 73 74 75 75 75 75 76 76 75 75 75 74 75 75 76 76 76 77 77 77 78
59 63 67 71 73 74 74 73 71 68 66 63 60 57 55 54 52 48 44 40 39 39 41 45 47 46 42 41 40 37 32 27 23 21 21 22 22 22 21 23 24 25 26 27 27 26 25 24 24 25 27 30 32 33 33 33 31 29 26 22 23 33 53 67 74 75 74 74 73 72 72 72 72 72 72 73 73 72 72 72 72 72 71 71 72 72 72 72 72 72 72 73 73 72 72 72 73 74 74 74 75 75 75
60 64 67 70 73 74 75 71 69 67 66 63 60 57 55 53 50 47 45 43 42 43 45 47 46 44 41 39 36 32 26 23 22 22 23 23 23 23 22 23 24 25 26 27 27 26 25 24 24 25 27 30 31 32 32 31 31 29 27 23 22 26 37 54 65 71 72 72 71 71 70 69 68 68 67 68 68 68 68 68 68 68 68 69 69 69 69 69 69 69 69 69 69 70 70 70 71 71 71 71 72 73 73
62 66 67 71 74 76 75 70 68 66 66 63 60 57 55 52 50 48 47 46 47 48 49 47 45 43 41 37 32 27 22 22 22 24 25 25 24 24 23 23 23 24 25 26 26 26 25 24 24 24 26 28 30 30 31 30 30 28 27 24 22 23 27 37 50 61 66 68 68 68 68 66 65 63 63 63 64 64 64 63 64 64 65 65 65 64 64 65 65 65 65 65 66 66 66 67 68 69 68 68 70 71 71
65 68 69 72 76 78 76 70 67 65 64 62 60 58 57 55 53 51 49 49 49 49 48 46 44 42 38 32 27 23 21 23 25 26 26 26 25 24 23 23 23 23 24 25 26 26 25 24 24 24 25 26 28 29 29 29 29 28 27 24 22 22 23 26 32 42 54 60 63 63 63 62 61 59 60 59 59 59 59 59 60 60 60 60 60 60 60 60 59 60 61 62 62 62 62 63 65 66 64 65 66 67 69
67 70 72 75 79 79 75 70 67 64 62 60 58 57 57 56 54 52 49 50 49 48 45 43 40 36 30 25 22 22 23 25 26 27 27 26 25 25 24 23 23 23 23 24 25 25 25 25 24 24 24 25 26 28 28 28 28 27 27 25 23 21 21 21 23 26 34 47 54 58 58 58 57 57 56 54 54 54 54 56 56 56 57 57 56 56 56 56 56 57 57 58 58 58 59 60 61 61 61 62 64 65 67
69 72 74 77 78 77 73 69 66 64 62 59 57 55 55 54 53 51 49 48 47 45 43 40 37 32 26 23 23 24 25 25 26 27 27 26 26 25 24 24 23 23 22 24 25 26 26 26 24 23 24 23 25 26 27 28 27 27 27 26 24 22 20 20 20 20 22 34 44 49 51 51 51 50 51 51 50 50 50 51 52 53 54 53 53 53 53 52 53 53 54 54 54 55 56 57 57 58 59 60 62 64 65
69 72 74 74 74 72 70 68 67 66 66 62 59 57 55 53 51 49 49 48 46 44 41 38 33 28 23 23 24 25 25 25 26 27 27 26 26 25 25 24 24 23 22 24 26 27 27 26 24 23 23 23 24 25 27 27 27 27 27 26 24 22 20 20 19 18 17 24 33 40 43 43 42 42 46 45 45 46 46 47 49 50 51 51 51 51 50 50 51 52 52 53 54 55 55 56 56 57 58 60 61 63 65
69 70 70 70 68 67 67 67 68 68 68 64 62 60 58 53 50 49 48 48 47 44 41 34 28 24 23 25 26 25 24 25 25 26 26 25 25 25 25 25 24 24 23 24 25 26 27 26 25 23 23 23 23 25 27 27 27 27 27 26 24 22 21 20 18 16 13 15 20 26 29 29 28 28 35 36 38 41 42 45 47 49 49 48 48 49 49 49 50 51 52 53 54 55 56 57 58 59 60 62 64 65 66
66 67 67 66 65 65 65 66 66 66 66 64 64 63 60 54 51 49 48 45 40 34 27 23 22 24 26 26 26 25 24 24 25 25 25 25 25 25 25 25 24 24 24 23 24 25 26 26 25 24 23 23 23 25 26 26 26 26 26 24 23 22 22 22 20 17 14 13 14 16 17 18 17 17 17 20 26 32 34 40 42 44 47 48 48 48 48 49 51 52 53 54 55 57 58 59 60 62 63 64 65 66 66
65 64 64 64 64 64 64 64 63 62 62 62 63 63 61 54 51 48 44 39 33 27 24 25 26 27 26 26 26 26 25 24 25 26 25 25 25 25 25 25 25 24 24 24 23 24 25 25 25 25 24 23 23 24 25 26 25 25 24 24 23 23 23 23 23 22 20 18 18 18 18 18 17 16 15 12 14 17 20 25 34 43 45 48 48 47 47 49 51 54 55 56 57 58 59 61 62 64 64 65 66 66 67
64 63 63 63 62 63 63 63 62 62 62 61 62 61 60 54 48 44 39 33 28 25 26 27 27 26 26 26 26 26 26 25 25 25 25 25 25 25 25 25 25 25 25 25 24 24 23 24 26 26 24 23 23 24 25 25 24 24 23 23 24 24 24 25 25 25 23 22 20 19 19 19 18 16 14 12 11 10 12 19 27 36 43 45 45 45 46 48 52 55 56 57 59 61 59 61 62 63 64 65 66 67 68
63 62 62 62 62 63 64 64 63 63 63 62 61 59 55 50 45 40 34 28 25 26 27 27 27 27 27 27 27 26 26 25 24 24 25 25 25 25 26 26 26 26 25 25 25 24 23 24 25 26 25 24 23 23 24 24 24 23 23 24 24 25 26 26 25 25 24 22 20 18 18 18 16 15 12 11 10 9 10 14 17 21 28 34 38 41 47 50 51 52 56 56 58 60 61 62 62 63 64 65 66 67 70
63 62 61 61 62 63 65 65 65 65 65 63 60 56 51 47 42 36 28 26 26 27 27 27 27 27 27 27 27 26 25 25 24 24 24 24 25 26 27 27 27 26 26 25 25 25 23 24 25 26 25 24 24 24 24 24 24 23 23 24 25 25 26 26 26 25 24 22 20 18 16 16 15 13 12 11 10 11 14 17 19 21 20 20 26 37 51 56 56 56 56 57 59 61 63 63 64 64 65 66 67 69 72
62 61 60 61 62 63 65 65 65 65 65 62 57 53 50 45 37 30 25 25 26 27 28 28 27 27 27 26 26 26 25 25 24 24 24 24 25 26 27 27 27 27 26 26 26 25 24 24 25 26 26 25 25 24 24 24 23 23 23 24 25 25 26 26 25 25 24 22 20 18 16 15 14 13 12 12 13 17 24 30 33 33 29 27 33 44 55 58 61 62 61 60 61 63 64 66 67 67 68 68 70 72 74
62 61 60 60 61 62 64 64 64 64 63 59 55 52 50 41 32 26 24 26 27 28 28 27 27 26 26 25 25 25 25 24 24 24 24 24 25 26 27 27 27 27 27 26 26 26 25 24 24 26 26 26 25 25 24 23 23 23 23 24 25 25 26 25 25 25 24 22 20 18 16 15 15 14 13 14 18 25 35 42 45 45 43 42 46 52 55 57 59 61 62 62 63 64 66 67 69 69 70 71 72 74 73
62 61 60 60 61 62 63 63 62 62 60 57 53 49 46 36 28 24 25 26 27 27 28 27 26 26 25 25 24 24 24 24 24 24 24 24 25 26 27 27 27 27 27 26 26 26 26 24 24 25 26 26 26 25 24 24 23 23 23 23 24 24 24 24 24 24 23 22 20 19 17 17 17 16 15 17 21 28 38 40 41 43 45 46 48 50 52 54 56 58 59 61 62 64 66 68 70 70 71 72 73 73 71
62 61 61 60 61 61 62 62 61 61 58 56 52 46 38 29 25 24 26 26 26 26 27 26 26 25 25 25 24 24 23 23 23 23 23 23 24 26 26 27 27 27 27 26 26 25 25 25 25 25 25 26 26 25 25 25 24 23 21 21 21 21 21 21 22 22 22 22 21 20 19 20 19 19 18 19 20 23 28 30 33 37 42 43 45 48 50 53 54 56 57 59 62 64 67 69 70 71 72 72 72 72 71
62 61 61 60 60 60 61 61 60 60 58 54 50 42 31 26 25 26 26 26 26 26 26 26 25 25 25 24 24 23 23 23 23 23 23 23 24 25 26 26 27 27 27 26 25 25 25 25 25 25 25 26 26 27 27 26 24 22 20 20 19 19 20 20 21 22 24 23 23 22 22 22 21 20 19 19 19 19 19 20 23 28 37 40 43 45 48 50 51 53 55 57 60 63 66 69 70 71 71 71 71 72 73
62 62 61 60 59 59 60 59 59 58 56 53 47 38 28 25 26 27 27 26 26 26 26 26 25 24 24 23 23 22 22 22 22 22 22 23 24 24 25 25 26 26 26 25 24 24 24 25 25 25 25 26 27 28 27 25 23 22 21 20 20 21 21 22 23 24 26 25 25 24 24 24 23 22 20 19 19 18 18 18 18 20 26 34 39 42 44 46 48 50 52 54 57 60 63 66 68 69 69 70 71 73 74
62 61 61 60 60 59 59 58 57 55 55 51 44 35 26 26 27 27 27 26 26 27 27 26 25 24 23 22 21 20 20 20 20 20 21 22 23 23 24 24 25 25 26 25 24 23 24 24 25 25 24 25 26 26 25 24 23 23 23 22 21 22 22 23 25 26 27 27 26 26 26 25 24 22 20 19 19 18 19 19 19 19 19 24 30 37 41 43 44 46 49 51 53 55 58 61 63 65 67 68 70 72 74
61 60 60 60 61 61 59 58 56 54 53 49 40 31 25 27 27 27 27 27 27 27 27 26 25 24 23 22 20 19 18 18 19 20 21 21 22 22 22 22 23 23 24 24 24 23 23 24 23 21 21 22 23 23 24 23 23 23 23 22 22 22 23 24 26 26 27 27 26 26 26 25 24 22 20 19 19 18 19 19 20 20 19 20 22 27 35 39 41 43 45 47 49 52 55 58 60 62 64 67 70 71 73
61 60 59 60 62 62 60 58 55 53 51 45 35 28 26 27 27 27 27 27 27 27 27 26 25 24 23 21 19 17 16 17 18 19 20 20 20 20 20 21 21 22 23 23 23 23 23 22 20 17 17 19 21 22 22 23 23 23 22 21 22 23 24 25 26 26 26 26 25 25 25 24 23 21 20 19 19 19 19 20 20 20 20 20 20 22 26 31 36 39 41 45 47 49 53 55 57 59 63 67 69 70 71
61 60 59 61 63 63 60 57 54 52 49 40 31 26 27 27 27 27 28 28 27 27 27 26 25 24 23 21 19 16 15 15 16 17 18 18 18 19 19 20 20 20 21 22 23 23 23 20 17 16 18 20 21 22 22 22 22 22 21 21 21 23 24 25 25 24 24 24 24 23 23 23 22 21 20 19 19 20 20 20 21 21 21 21 21 22 23 24 27 32 38 42 45 47 50 53 55 58 62 66 68 68 69
62 61 62 64 65 64 59 55 53 50 45 35 29 27 28 27 28 28 29 28 28 27 26 26 25 25 23 21 19 17 15 14 14 15 15 16 17 18 19 19 20 20 21 22 22 23 22 18 17 18 20 21 21 21 21 20 20 20 20 20 20 21 22 22 22 21 21 21 21 21 22 21 21 21 20 20 20 20 21 21 22 22 22 22 22 22 23 23 23 25 31 38 43 46 48 51 53 57 61 65 66 65 66
63 63 63 64 65 63 56 51 48 45 40 32 28 27 28 28 28 29 29 28 28 27 26 26 25 24 23 22 20 18 16 13 13 13 14 15 16 17 18 20 20 21 22 22 23 22 20 17 18 20 22 22 21 21 20 19 19 19 19 19 20 20 20 20 20 20 19 20 20 20 21 21 21 21 20 20 20 21 21 22 22 23 23 23 24 24 23 23 23 23 25 35 40 43 47 49 52 56 60 62 62 62 63
64 64 63 62 62 60 53 47 43 39 34 29 27 27 28 28 29 29 29 28 27 27 26 25 24 24 23 23 22 20 18 15 12 12 13 16 18 19 21 21 22 24 23 23 22 20 17 18 20 23 23 23 23 22 20 19 19 19 19 19 19 19 19 19 20 20 20 21 21 21 22 22 21 21 21 21 21 21 22 23 23 24 24 24 25 25 25 24 24 24 24 31 36 40 43 45 49 53 57 59 59 59 61
66 65 63 60 58 55 51 45 40 35 30 27 27 27 27 29 30 30 29 28 27 26 26 25 24 24 24 23 23 22 21 17 13 11 12 17 21 25 29 25 22 23 25 23 22 20 17 20 22 24 24 25 23 21 18 18 19 19 19 19 19 20 20 20 21 22 22 22 22 22 22 22 22 21 21 21 22 22 23 24 24 25 25 25 25 25 25 25 25 25 24 27 31 36 40 43 46 49 53 55 56 56 59
68 68 66 61 55 51 48 43 38 34 28 26 26 26 28 29 30 30 29 28 27 26 26 25 24 24 24 24 23 23 23 20 15 12 13 18 22 25 28 25 22 23 28 26 25 24 20 23 25 27 28 24 20 16 16 18 19 19 20 20 20 21 21 22 22 22 22 22 22 22 22 22 22 22 22 22 23 23 24 24 25 25 25 26 26 26 26 26 26 26 26 26 25 27 30 37 42 45 48 51 53 56 59
68 69 67 61 54 48 43 40 36 32 27 26 26 27 28 30 31 30 29 28 27 26 26 26 25 25 25 25 25 25 25 22 17 13 12 16 19 20 21 26 26 25 28 24 27 28 24 23 24 24 20 15 15 17 18 19 20 20 21 21 22 23 23 23 23 22 22 22 22 22 22 22 22 22 22 23 23 24 24 25 25 25 26 26 26 26 26 26 26 26 26 26 26 24 23 28 36 42 44 46 50 54 60
68 68 67 61 54 47 41 38 34 29 27 27 28 29 31 32 32 30 29 28 27 26 26 25 25 25 25 25 26 26 26 24 20 15 13 16 18 20 23 32 37 41 44 34 29 27 28 26 22 17 15 17 18 19 19 19 20 20 21 21 22 22 22 22 22 22 22 22 22 22 22 22 23 23 23 24 24 24 25 25 25 25 26 26 26 26 26 27 27 27 27 27 26 25 24 24 30 37 41 44 48 53 60
67 67 66 61 54 48 43 38 32 28 27 28 29 31 33 33 32 31 28 27 26 26 26 25 25 25 25 25 26 26 27 26 22 18 15 14 16 21 28 42 47 45 36 34 30 26 26 31 28 21 15 18 19 18 18 18 18 19 19 20 21 21 21 21 21 21 21 22 22 22 23 23 23 24 24 24 24 24 25 25 25 25 25 26 26 26 27 27 27 27 28 27 27 27 26 24 28 34 40 44 48 54 61
66 65 63 60 55 50 44 36 30 27 27 28 31 33 34 34 33 31 28 27 26 26 25 25 25 25 24 24 25 26 27 27 24 21 19 15 14 17 19 26 27 25 24 24 25 28 35 35 35 30 20 20 19 18 18 18 18 18 19 20 20 21 21 21 21 21 21 22 22 22 23 23 23 24 24 24 24 25 25 25 25 25 25 26 26 26 27 27 27 28 28 28 28 27 27 25 28 34 40 44 49 55 63
64 62 60 57 54 50 42 32 28 27 28 30 32 34 35 34 33 31 29 27 26 25 25 24 24 24 23 23 23 25 27 27 26 24 24 20 16 16 18 20 23 25 24 25 26 29 36 37 33 26 22 21 20 20 19 18 18 18 19 20 20 21 21 21 21 21 21 21 22 22 22 23 23 24 24 25 25 25 25 25 25 25 25 26 26 26 27 27 27 27 27 28 28 28 28 26 30 36 42 46 52 58 63
61 59 56 53 51 47 39 31 28 28 29 31 33 35 35 34 33 31 29 27 26 24 23 23 23 22 22 22 23 24 25 27 27 27 28 25 21 19 18 20 20 21 20 26 27 29 37 41 37 31 30 26 23 21 21 20 20 20 19 20 20 20 21 21 21 21 21 21 21 22 22 23 24 24 25 25 25 25 25 25 25 25 25 26 26 26 26 26 26 27 27 27 28 28 28 28 33 39 42 48 55 59 60
57 56 53 50 47 42 34 29 28 30 31 33 34 35 35 34 33 32 30 28 26 24 22 21 21 21 21 22 23 24 25 26 26 28 31 29 26 23 23 23 23 23 23 23 24 27 32 36 38 37 35 30 27 25 24 23 23 22 21 21 21 21 20 20 20 20 21 21 22 22 23 24 24 25 25 25 25 25 25 25 25 25 25 25 25 25 25 25 26 26 27 27 28 28 27 29 34 39 44 51 55 57 56
55 54 51 50 45 37 29 29 30 31 32 34 35 36 36 35 33 32 30 28 25 23 20 19 20 20 21 21 22 23 25 25 26 27 32 30 28 26 25 26 26 26 26 26 26 27 27 31 36 38 36 35 32 30 28 27 25 25 24 23 22 22 21 21 21 21 22 22 23 24 24 25 25 25 25 25 25 25 25 25 25 24 24 24 24 24 25 25 25 26 26 27 27 28 28 29 34 40 47 51 53 53 53
54 53 53 53 45 34 27 29 30 32 34 35 36 36 36 35 33 32 29 27 24 21 19 18 19 20 20 21 22 23 24 25 26 28 31 30 28 27 26 26 26 26 26 26 26 27 28 28 29 30 32 43 41 36 34 32 29 26 23 23 23 23 24 24 24 24 25 25 25 26 26 26 26 26 26 25 25 25 25 24 24 24 24 24 24 24 25 25 25 26 26 27 27 28 28 29 35 41 46 49 50 51 51
Wind_Speed
11 14 15 15 14 14 13 13 13 12 12 11 11 11 11 11 11 11 11 11 11 10 10 10 10 10 10 9 9 9 9 9 8 8 8 9 9 9 9 9 8 8 8 8 8 8 8 8 8 8 7 5 7 10 11 9 8 8 7 6 5 5 6 7 7 7 7 7 7 6 5 5 4 3 2 2 3 3 3 3 3 3 3 2 1 1 2 3 4 4 5 6 7 8 7 7 5 2 1 2 3 4 5
12 14 15 15 14 13 13 13 12 12 11 10 10 10 10 10 11 11 11 10 10 10 10 9 9 9 9 9 8 8 8 8 7 7 7 8 9 10 10 9 9 9 8 8 8 8 9 9 9 9 8 7 8 11 11 9 9 8 6 5 5 6 7 7 7 7 7 7 6 5 4 4 4 3 2 1 1 2 2 2 2 3 3 3 3 2 2 2 3 3 3 4 5 6 6 4 4 4 4 5 6 6 7
12 14 14 14 14 13 13 13 12 12 11 11 10 10 11 11 11 10 10 10 9 9 9 9 9 8 8 8 8 8 8 7 6 6 7 8 9 10 10 10 9 9 9 8 8 9 9 10 11 11 11 10 11 12 11 10 9 8 6 5 5 6 8 7 7 6 6 6 6 5 4 4 3 3 2 2 2 2 2 2 2 2 2 2 3 2 2 2 3 3 3 3 4 5 5 4 4 6 7 7 6 5 5
12 13 14 14 13 13 13 13 12 12 11 11 11 11 11 11 10 10 9 9 9 8 8 8 8 8 8 8 7 7 7 7 7 7 8 9 9 10 9 9 9 9 9 8 9 10 11 12 12 13 13 13 12 12 11 11 9 8 7 6 6 7 8 7 6 5 5 5 4 4 3 3 3 3 2 2 2 2 3 3 3 2 1 1 2 3 3 3 2 2 3 3 3 3 4 4 5 6 7 7 7 6 6
12 13 13 13 13 13 13 12 12 11 12 11 11 10 10 10 9 9 9 8 8 8 8 7 7 7 8 8 8 8 8 8 8 8 9 9 9 9 9 9 9 8 8 9 9 10 12 12 13 13 13 12 11 11 10 10 8 7 7 7 7 8 8 7 6 5 4 4 4 4 3 2 2 2 2 2 1 1 2 3 3 2 1 2 3 3 3 4 3 2 3 2 1 2 3 4 5 5 6 5 5 6 6
12 13 13 13 13 13 12 11 11 11 11 11 11 10 10 9 9 9 8 8 8 7 7 8 8 8 8 8 9 9 9 9 9 9 9 9 9 8 8 8 8 8 9 9 10 11 12 12 13 13 12 11 10 9 9 8 7 7 7 7 8 8 8 7 6 5 5 4 4 4 3 2 2 2 1 1 1 1 3 4 3 2 2 3 5 5 3 2 2 2 4 4 3 2 2 3 4 4 5 5 5 6 6
12 13 13 13 13 12 12 11 11 11 11 10 10 9 9 9 9 9 8 8 8 8 8 8 9 8 8 8 9 9 9 9 9 9 9 8 8 8 8 8 8 9 9 10 11 11 12 12 12 11 10 9 8 8 8 7 7 7 7 7 8 8 8 7 7 6 5 5 4 4 3 3 3 2 1 1 2 2 3 3 3 4 5 5 5 3 1 1 2 4 5 5 5 5 4 4 5 5 6 6 6 6 7
12 12 12 12 12 12 12 12 11 11 11 10 9 9 9 9 9 9 8 8 8 9 9 9 8 8 7 7 7 8 8 8 8 8 8 8 7 7 7 7 8 9 10 11 11 11 11 12 11 10 9 7 6 6 6 5 5 6 6 7 7 7 8 7 7 6 5 5 4 4 4 3 3 2 1 2 2 3 3 3 4 6 7 7 8 7 6 4 4 4 4 4 3 3 4 5 7 8 8 8 7 6 6
13 13 13 13 13 12 12 11 11 11 11 10 9 9 9 8 8 9 9 9 9 9 9 8 7 6 6 6 6 7 7 7 7 7 7 7 7 7 7 8 9 10 11 11 11 11 11 11 10 9 7 5 4 4 4 4 4 5 6 6 7 6 7 7 7 6 5 5 4 4 4 3 3 2 2 2 2 2 3 3 4 5 6 6 5 4 5 5 5 5 4 4 3 1 3 5 7 8 9 9 9 7 5
13 14 14 14 13 12 11 11 11 10 10 10 9 8 8 8 9 9 10 10 9 8 8 7 6 6 6 6 7 7 7 7 7 7 7 7 7 7 8 9 10 10 10 10 10 10 10 10 9 7 6 4 3 2 2 2 3 3 5 6 6 6 6 7 7 6 5 4 4 4 3 3 3 3 2 1 1 1 2 3 4 4 4 3 3 3 3 4 4 5 4 4 3 2 2 3 4 5 6 6 6 5 4
14 14 14 13 12 12 11 11 11 10 9 9 9 8 8 9 10 10 10 10 9 8 7 6 6 7 7 8 8 9 8 8 8 8 8 8 8 8 8 9 10 10 10 10 10 9 9 9 7 6 5 3 2 2 1 2 2 3 4 6 6 5 6 7 7 6 6 5 4 3 3 3 3 3 2 1 1 1 2 3 4 4 3 3 3 3 4 4 4 4 4 4 4 3 2 2 2 2 3 3 4 5 5
13 14 13 12 11 11 11 11 10 10 9 9 9 9 9 10 11 11 10 9 8 7 7 7 8 9 10 11 11 11 10 10 10 9 9 9 9 9 9 9 9 9 9 9 9 9 8 7 6 5 4 3 2 2 2 2 2 3 4 6 6 5 5 6 7 7 6 5 4 4 4 4 4 4 4 3 3 3 3 4 3 3 3 3 3 4 4 4 4 4 5 5 4 3 3 3 3 3 4 3 3 4 4
13 13 12 11 10 10 10 10 10 10 10 9 10 10 11 11 11 10 9 8 8 7 8 8 10 11 12 12 12 12 11 11 10 10 10 10 10 10 10 9 9 8 8 9 9 8 8 6 5 4 3 2 2 2 2 2 2 3 4 5 6 5 6 6 7 7 6 5 4 4 4 5 5 5 5 5 5 4 4 4 3 2 2 3 4 4 4 4 5 5 5 5 4 4 3 3 3 3 3 3 2 3 3
12 12 11 10 9 9 10 10 10 10 10 10 11 11 11 11 11 10 8 8 8 8 8 10 11 12 12 12 11 11 11 11 10 10 10 10 10 10 9 9 8 7 7 7 7 7 6 5 4 3 3 2 2 2 2 2 2 3 4 5 6 6 6 6 7 6 6 5 5 5 5 5 5 5 6 6 5 5 4 3 3 2 2 4 4 5 5 5 5 5 5 4 4 3 3 3 3 3 3 3 4 4 3
11 11 11 10 10 10 10 11 11 11 11 11 11 12 11 11 10 8 8 7 8 8 9 10 11 11 11 10 10 10 10 10 10 10 10 9 9 9 8 7 6 5 5 5 5 5 5 4 3 3 3 2 2 2 2 2 2 3 4 5 6 6 6 7 7 6 6 5 5 5 5 5 5 5 6 6 6 5 4 3 2 3 4 5 5 5 6 6 6 6 5 4 3 3 3 3 3 4 4 5 5 5 4
11 11 11 11 11 11 11 11 11 11 11 11 11 11 10 9 8 7 7 7 8 9 10 11 11 10 10 9 9 9 10 10 10 10 9 8 8 7 7 6 5 4 3 3 3 3 3 3 3 3 3 2 2 2 2 2 2 3 4 5 6 6 7 7 6 6 6 5 5 5 5 6 5 5 6 6 6 5 5 3 3 4 5 6 6 6 6 6 6 6 5 4 3 3 4 4 4 4 5 6 6 5 5
11 11 11 11 11 11 11 11 11 11 11 11 11 10 9 8 7 7 7 8 9 10 11 11 11 10 9 8 8 8 8 9 9 9 8 7 6 5 5 4 3 2 2 2 2 2 2 3 3 3 3 3 3 2 2 2 2 3 4 5 6 6 7 7 7 6 7 7 6 6 6 6 6 6 6 5 5 5 5 4 4 4 5 6 6 7 6 6 7 6 5 5 6 5 5 5 5 5 5 5 6 5 5
11 11 11 11 11 11 11 10 10 10 10 10 10 9 8 7 7 7 8 9 11 11 11 11 10 9 8 8 8 8 8 8 8 8 7 6 5 4 3 3 3 2 2 2 1 1 2 3 3 3 3 3 3 3 2 2 2 4 5 5 6 6 7 7 7 7 7 7 7 7 7 7 7 6 5 5 5 5 5 4 4 5 6 7 7 7 7 8 7 7 6 7 7 7 7 6 6 6 6 6 6 6 6
11 11 11 11 11 11 10 10 10 10 10 10 9 8 7 7 7 8 10 11 12 12 11 10 9 9 9 8 8 8 8 7 7 7 6 5 4 3 3 3 3 3 2 2 2 2 2 3 4 4 3 3 3 2 2 2 3 4 5 5 5 6 7 7 7 7 7 8 8 8 8 8 7 7 7 7 8 7 7 7 7 8 8 9 8 8 8 8 8 7 7 7 7 7 7 7 7 7 7 6 6 6 6
11 12 11 11 11 11 10 9 9 9 9 9 8 8 8 8 9 10 11 12 12 11 10 9 8 8 8 8 8 7 7 6 6 5 3 3 2 2 3 3 3 3 2 2 2 2 3 3 4 4 3 3 2 2 2 2 3 5 6 5 5 6 7 7 7 7 7 8 8 9 9 9 9 9 9 9 10 10 9 9 9 9 9 10 10 9 9 9 8 8 7 7 7 7 7 7 7 7 7 7 6 6 6
12 12 12 12 12 11 10 9 9 9 9 9 8 8 9 10 10 11 11 11 11 10 9 8 8 8 8 7 7 6 5 4 3 2 1 0 1 2 3 3 3 3 2 2 2 3 3 3 3 4 3 3 3 2 2 3 4 6 6 5 4 6 7 8 7 7 7 8 8 9 9 10 10 10 10 10 10 10 10 9 9 8 8 9 9 10 9 9 8 7 7 6 6 6 6 6 7 7 7 6 6 6 6
13 13 13 13 12 11 10 10 9 9 9 9 9 9 10 10 11 11 11 10 10 9 8 8 7 7 7 6 5 4 3 2 1 1 1 1 2 2 2 3 3 2 2 2 2 2 2 2 3 4 4 3 3 3 3 3 5 6 6 4 3 5 7 8 8 7 7 7 8 8 9 9 9 9 9 9 9 9 9 9 9 8 8 8 8 8 8 8 8 8 7 6 6 5 5 6 6 6 6 6 6 6 6
13 13 13 13 13 12 11 10 10 10 10 10 10 10 10 10 10 10 10 10 9 9 8 7 6 5 4 4 3 2 2 1 1 1 1 1 2 2 2 2 2 2 2 2 2 2 2 2 3 4 4 4 3 3 4 4 5 6 6 4 3 4 6 7 8 7 7 7 8 8 8 8 8 8 8 8 8 8 8 9 9 8 7 7 8 8 8 8 8 8 7 6 6 5 5 5 6 6 6 6 6 6 6
13 13 13 13 13 12 11 10 10 10 11 11 10 10 10 10 9 9 9 10 9 9 8 6 5 4 3 3 3 2 2 2 2 2 2 2 2 2 1 1 1 2 2 1 2 2 2 2 3 4 4 3 3 3 4 4 5 5 5 4 2 3 5 7 7 7 7 7 7 7 7 8 8 8 7 7 7 7 7 7 8 8 7 7 7 7 7 8 8 8 7 7 6 5 5 5 6 6 6 7 7 6 6
13 13 13 14 13 12 12 11 11 11 12 12 11 10 9 9 9 9 9 9 9 8 7 5 4 3 3 2 2 2 2 3 3 3 3 4 3 3 1 1 1 1 1 1 1 1 1 2 4 4 4 3 3 3 4 4 4 5 5 4 2 2 4 6 7 7 7 7 7 7 7 7 7 7 7 7 7 6 6 6 6 7 7 7 7 7 7 7 7 7 7 7 7 6 6 6 6 6 7 7 7 7 7
13 13 13 14 14 13 13 12 12 12 12 12 11 10 10 9 9 9 9 8 8 7 5 4 3 3 2 2 1 2 3 3 3 3 4 4 4 4 2 1 1 1 1 0 1 1 1 2 4 4 4 3 3 3 3 4 4 5 5 4 3 1 2 4 5 7 7 7 7 6 6 6 6 7 6 7 6 6 6 6 6 6 6 7 7 7 7 7 8 8 7 7 7 7 7 7 7 7 7 8 8 8 8
13 13 14 14 15 15 14 13 13 12 12 11 11 11 11 10 10 9 9 8 7 6 4 4 3 3 2 2 1 2 3 3 3 3 4 4 5 5 4 2 1 1 0 0 1 1 1 2 3 4 4 4 3 3 3 3 4 5 5 4 3 2 1 2 3 4 6 6 6 6 6 6 6 6 6 6 6 6 6 6 6 6 7 7 7 7 7 8 8 8 8 8 8 8 8 8 8 8 8 8 8 8 8
14 14 14 15 16 16 16 15 13 13 12 12 12 12 11 11 10 9 8 8 6 5 5 4 3 3 2 1 1 2 2 2 2 3 3 4 5 5 5 3 2 1 0 1 1 1 1 2 3 4 4 4 3 3 3 3 4 5 5 4 3 3 2 0 1 2 3 5 6 5 6 6 6 6 6 6 6 6 6 6 6 7 7 7 7 8 8 8 8 8 9 9 9 8 8 8 9 9 9 9 9 9 9
15 15 15 16 17 18 17 16 15 14 14 14 14 13 11 11 10 9 8 7 6 6 5 4 3 2 1 0 1 2 2 2 2 2 3 4 5 5 5 4 3 2 1 1 1 1 2 2 2 3 4 4 4 3 3 4 4 4 4 4 3 3 3 3 2 1 1 3 4 5 5 5 6 6 6 6 6 6 6 6 7 7 7 7 8 8 8 8 9 9 9 9 9 9 9 9 9 9 9 9 9 9 9
16 17 18 18 19 19 19 18 17 16 16 15 14 13 11 10 9 9 8 7 6 5 4 3 2 1 0 1 2 2 3 2 3 2 2 3 4 5 5 5 5 4 3 1 1 2 2 2 2 3 4 4 4 3 3 3 4 4 3 3 4 4 4 4 3 2 1 1 3 4 4 5 5 6 6 6 6 6 6 7 7 7 7 8 8 8 9 9 9 9 9 9 9 9 9 9 9 10 10 10 10 10 10
18 19 20 20 21 20 20 19 18 17 16 15 14 13 11 10 9 8 7 6 5 4 3 2 1 1 1 1 2 3 3 3 3 3 2 2 3 4 4 5 5 4 4 2 2 2 2 2 2 2 3 4 4 3 2 2 3 3 3 3 4 5 4 4 3 2 1 1 2 3 4 4 4 5 6 6 6 6 6 7 7 7 8 8 8 9 9 9 9 9 9 9 9 9 9 9 10 10 10 10 10 10 10
19 21 21 21 21 20 19 18 17 16 16 15 14 13 12 10 9 8 7 5 4 3 2 2 1 0 1 1 2 3 4 3 4 4 3 2 2 3 4 4 5 4 4 2 2 1 2 2 2 1 2 3 3 2 2 2 2 2 3 4 5 5 5 4 3 2 2 2 2 3 4 4 4 5 6 6 6 7 7 7 7 8 8 8 8 9 9 9 9 9 9 9 9 9 9 9 9 10 10 10 10 10 10
21 22 21 20 19 19 18 17 16 16 15 15 14 13 11 10 9 8 7 6 4 4 2 2 1 0 1 2 3 4 4 3 3 3 3 2 1 2 3 3 4 4 4 2 1 0 1 2 1 1 2 3 2 2 2 2 2 3 4 5 5 6 5 4 3 2 2 2 2 3 4 4 5 6 6 7 7 7 7 7 7 8 8 8 9 9 9 9 9 9 9 9 9 9 9 9 9 10 10 10 10 10 10
21 21 20 19 18 18 16 15 15 15 15 14 12 12 11 10 9 8 7 6 5 4 3 2 1 1 1 2 2 3 3 2 2 2 2 1 1 1 1 2 3 4 4 2 1 1 1 1 0 0 1 2 2 2 2 2 3 3 4 5 6 6 5 4 3 2 2 3 3 4 4 5 6 7 8 8 8 8 8 7 7 8 8 8 9 9 9 9 9 9 9 9 9 9 9 10 10 10 10 10 10 10 10
21 20 19 18 18 17 16 15 15 15 14 13 11 11 11 10 9 8 7 6 5 4 3 2 2 1 1 1 1 2 3 2 1 1 2 1 1 1 1 1 1 2 3 3 2 2 2 1 1 1 2 1 1 1 1 2 3 4 5 5 5 5 4 4 3 3 3 4 5 5 5 6 6 7 8 9 9 8 8 8 8 8 8 8 9 9 9 9 9 9 9 10 10 10 10 10 10 10 10 10 10 10 10
21 20 20 19 18 17 16 15 15 14 14 12 11 11 10 10 9 8 7 5 4 4 3 3 2 2 0 0 1 2 2 2 1 0 1 2 2 2 2 1 0 1 2 3 3 3 3 1 1 2 2 2 1 1 2 3 3 4 4 4 4 4 4 3 3 3 4 5 6 7 7 7 7 8 8 9 8 8 8 7 7 7 8 8 8 9 9 9 9 9 9 10 10 10 10 10 10 10 10 10 10 10 10
21 21 20 19 18 17 16 15 15 14 13 12 11 11 10 10 9 7 6 5 4 3 3 3 3 2 1 1 2 2 3 3 2 2 1 1 2 2 2 1 1 0 1 2 3 4 3 0 1 2 3 3 3 2 2 2 3 3 3 3 3 3 3 3 4 5 6 7 8 9 8 8 8 8 9 9 8 8 8 8 8 8 8 8 8 9 9 9 9 9 10 10 10 10 10 10 10 10 10 10 10 10 10
23 22 21 19 18 17 17 16 15 14 13 13 12 11 10 10 9 7 6 5 4 4 3 4 4 3 2 2 1 2 3 3 3 3 3 2 1 1 1 1 1 0 1 2 3 3 3 0 1 2 3 4 4 3 2 2 2 2 2 2 2 2 3 4 5 6 7 9 10 10 9 8 8 8 9 9 9 9 9 9 9 9 9 9 9 9 9 10 10 10 10 10 10 10 10 10 10 10 9 9 10 10 10
24 23 22 20 18 18 17 16 15 14 14 13 12 11 10 10 9 8 6 6 5 4 5 5 4 4 3 2 1 1 2 3 3 4 4 3 1 1 2 2 1 1 1 1 2 3 2 0 1 2 2 3 4 4 4 3 3 2 2 2 2 3 3 4 5 7 8 10 10 10 9 8 8 9 10 11 10 10 10 10 9 9 10 10 10 10 10 10 10 10 11 11 11 10 10 10 10 9 9 9 10 10 10
25 24 22 21 19 19 18 17 16 15 14 13 12 11 10 9 9 9 7 6 6 6 6 5 5 4 4 3 2 2 2 3 4 4 4 3 1 1 2 2 2 2 1 1 2 2 2 1 2 2 2 3 4 4 4 4 4 3 3 4 4 5 5 6 7 8 9 10 10 9 8 7 8 10 11 12 11 10 10 10 9 9 9 10 10 10 10 11 11 11 11 11 11 11 10 10 10 9 9 10 10 10 10
25 24 23 22 20 19 18 17 16 16 15 14 13 11 10 10 9 9 8 7 7 7 6 6 5 5 4 3 3 3 3 4 5 5 4 3 1 2 3 2 2 2 1 1 1 2 2 2 3 3 4 4 4 4 4 5 4 4 4 5 5 6 7 7 7 8 8 8 8 7 7 7 9 11 12 12 11 11 10 10 9 9 9 9 10 10 11 11 11 11 11 11 11 11 10 10 10 10 10 10 11 11 11
25 24 23 22 21 20 19 18 17 16 15 14 13 12 11 11 10 9 8 7 7 7 6 5 5 4 4 3 3 3 3 4 5 5 4 2 2 2 3 3 2 2 1 0 1 2 3 3 4 4 5 4 4 4 5 5 5 4 3 4 4 5 6 6 6 6 7 7 7 6 6 8 9 11 12 13 12 12 12 11 10 9 9 10 10 11 11 12 12 12 12 12 11 11 10 10 10 10 10 11 11 11 11
26 24 23 23 21 20 19 18 17 16 16 14 13 12 12 11 10 9 8 7 7 7 7 5 4 3 2 1 1 2 3 3 3 3 2 1 2 2 3 3 3 2 2 1 2 3 3 4 4 5 5 5 5 5 5 4 4 3 3 3 4 5 6 6 6 6 7 7 7 7 7 8 9 11 12 13 13 14 13 13 12 11 10 10 11 11 12 12 12 12 12 12 11 11 10 10 10 10 11 11 11 11 10
26 25 24 23 22 20 19 18 18 17 16 15 14 13 12 11 9 8 8 7 7 7 7 6 5 4 3 2 2 2 3 3 2 2 1 1 2 3 3 3 2 2 2 2 3 4 4 4 4 5 6 6 5 5 4 3 3 3 4 5 5 6 6 6 6 7 7 7 7 7 8 8 9 11 12 13 14 14 14 14 13 12 12 12 12 12 12 12 12 13 12 12 11 10 10 10 10 11 11 11 11 10 10
26 25 24 23 22 21 20 19 18 17 17 16 15 13 12 11 9 8 7 7 7 7 7 6 5 4 3 3 3 4 4 3 3 1 0 2 3 3 3 2 2 2 2 3 4 5 5 5 5 5 5 5 5 4 3 3 4 4 5 5 5 5 5 5 6 6 7 7 7 7 7 8 9 11 13 14 15 15 15 15 14 14 14 14 14 13 13 13 13 13 12 12 11 11 10 10 11 11 11 11 10 10 10
27 26 25 24 22 21 20 19 19 18 17 16 15 14 13 11 10 9 8 7 7 6 6 6 6 5 4 3 4 4 4 4 3 2 1 2 2 2 2 1 1 2 3 4 5 5 5 4 4 3 2 4 4 4 3 3 4 4 4 4 4 4 4 4 5 5 5 6 6 6 7 8 10 12 13 14 15 15 15 15 15 15 15 15 15 15 15 14 13 13 12 12 12 11 11 11 11 11 11 11 10 10 10
28 26 25 24 23 22 21 20 19 19 18 17 17 16 14 13 11 10 8 8 7 7 6 6 5 5 5 4 4 4 4 4 3 2 1 1 1 1 1 1 1 2 3 5 6 6 5 3 2 1 4 5 5 3 2 3 3 4 3 3 3 3 3 3 3 4 4 5 6 7 8 10 11 13 14 14 15 15 15 16 16 16 16 16 16 16 16 15 15 14 13 12 12 12 11 11 12 11 11 10 9 9 9
28 27 26 24 23 22 21 20 20 19 18 18 17 17 15 14 12 10 9 8 8 8 7 6 5 5 5 4 4 4 4 4 3 2 1 0 1 2 2 1 2 2 3 5 6 5 4 2 1 4 6 5 4 2 2 2 3 3 3 3 3 3 2 2 3 4 5 6 7 9 10 11 12 13 14 14 15 15 16 16 16 16 16 16 16 17 17 16 16 15 14 13 12 12 12 12 12 11 11 10 9 9 10
27 27 26 25 24 23 22 21 20 19 19 18 18 17 15 14 12 11 9 9 9 9 8 7 5 5 4 3 3 4 5 5 4 3 2 1 3 4 4 4 3 3 4 6 6 5 3 2 3 5 6 4 3 1 1 2 3 3 4 4 4 4 5 5 5 6 7 8 10 11 12 12 13 13 13 14 14 15 16 16 17 17 17 17 17 17 17 17 17 16 15 14 13 13 13 12 12 11 10 10 9 9 10
28 27 26 26 25 24 23 22 21 20 19 18 17 17 15 14 12 11 11 10 10 10 11 9 7 6 4 3 3 4 5 5 5 3 2 3 3 3 3 4 5 6 7 7 6 4 3 4 5 5 5 3 2 2 3 4 4 5 5 5 6 6 7 7 8 9 9 10 11 11 12 12 12 13 13 14 14 15 16 16 16 17 17 17 17 17 17 17 17 17 16 15 14 13 13 13 12 11 10 10 10 10 10
28 28 27 27 26 25 24 23 22 21 20 19 18 16 15 14 13 12 12 12 12 12 12 12 10 7 5 4 3 3 4 5 5 4 3 4 4 3 1 2 3 5 6 6 5 4 4 5 6 5 4 2 3 4 4 4 4 5 5 6 6 7 7 8 9 9 10 10 10 11 11 12 12 13 13 14 14 15 15 16 16 16 16 17 17 17 17 17 17 17 17 16 15 14 13 12 12 11 10 10 10 11 11
28 28 28 28 27 26 25 24 23 22 21 20 19 17 16 14 14 13 13 13 12 12 12 12 12 9 7 5 3 2 3 4 6 5 4 3 3 3 2 2 2 2 2 1 2 3 4 6 6 6 4 3 3 3 2 2 2 2 3 4 5 6 7 8 9 10 10 10 10 11 11 12 12 13 13 14 14 15 15 15 16 16 16 17 17 17 17 17 17 17 18 18 17 16 14 13 12 11 11 11 11 12 12
29 28 29 28 28 27 26 25 24 23 22 21 20 19 17 16 15 14 13 13 12 12 11 10 11 11 9 7 4 3 2 3 5 5 4 3 3 3 3 3 2 0 0 1 2 2 1 1 4 5 3 1 1 1 3 4 3 2 2 3 4 5 6 7 8 9 9 10 10 10 11 11 12 12 13 14 14 14 15 15 15 16 16 17 17 17 17 17 18 18 18 18 18 17 16 14 12 12 12 12 12 12 12
29 29 29 29 29 28 27 26 24 23 22 21 21 20 18 17 16 15 14 13 13 12 11 10 9 10 11 8 6 4 3 2 3 4 4 3 2 2 3 2 1 1 1 3 2 1 3 3 3 3 3 1 2 3 4 3 2 2 2 3 4 5 6 6 7 7 8 8 9 9 10 11 12 13 13 14 14 15 15 15 16 16 17 17 17 17 17 17 17 18 18 19 19 18 16 15 13 13 13 13 13 13 12
29 29 29 29 29 29 28 26 25 23 22 21 20 20 19 18 16 15 14 14 13 12 12 11 9 9 11 10 8 5 4 3 2 3 3 4 3 2 2 2 1 2 3 3 2 2 3 3 4 4 3 2 3 2 2 0 2 3 3 4 4 5 6 7 7 7 7 8 8 9 10 11 12 13 14 14 15 15 15 16 16 16 17 17 17 17 17 17 17 18 18 19 19 18 17 15 14 13 13 13 13 12 11
29 29 29 29 29 29 28 27 25 24 22 21 20 19 19 18 17 16 15 14 14 13 12 12 12 10 9 10 10 8 6 4 3 2 3 4 4 4 2 2 2 2 1 1 1 2 3 2 3 3 2 1 1 2 2 3 4 5 5 5 5 6 7 8 9 9 9 10 10 11 12 13 13 14 14 14 15 15 15 16 16 16 17 17 17 17 17 18 18 18 19 19 19 19 17 16 14 13 13 13 12 11 11
30 30 30 30 29 28 28 27 26 24 23 22 20 19 19 18 17 16 16 15 14 14 13 13 13 13 11 10 10 10 8 6 5 3 3 4 4 4 4 4 3 3 3 2 2 2 2 1 2 1 3 2 2 3 4 5 6 6 5 5 6 7 8 9 10 11 12 13 14 14 14 14 15 15 15 15 15 15 15 15 16 16 17 17 18 18 19 19 19 20 20 20 20 19 17 16 14 13 13 12 11 11 11
30 30 30 30 29 28 28 27 26 25 24 22 21 20 19 18 18 17 17 16 15 14 14 13 14 14 13 11 10 9 9 9 7 5 4 4 4 4 4 4 4 4 5 3 3 4 4 3 3 1 2 4 3 2 3 5 7 7 6 6 7 8 9 11 12 13 14 15 16 16 16 15 15 15 15 15 16 16 16 16 17 17 18 19 19 20 20 21 21 21 21 20 20 19 17 15 14 13 12 12 11 11 12
30 30 30 29 29 28 28 28 27 26 25 23 22 20 20 19 18 17 16 15 15 14 14 14 14 14 13 12 10 10 11 10 9 7 6 5 4 4 4 4 4 4 4 5 4 3 3 2 2 2 1 1 3 3 3 5 7 8 8 8 8 9 11 12 14 15 16 16 16 16 16 16 15 15 16 16 17 17 17 18 18 19 20 20 21 21 21 22 22 22 21 20 19 18 17 15 13 12 11 11 11 12 13
29 29 29 29 28 29 29 29 28 26 25 24 22 21 20 19 18 17 16 15 14 14 14 14 14 14 13 12 11 11 12 11 9 8 7 5 4 4 4 3 3 3 3 3 2 2 1 1 2 3 3 2 1 3 4 5 6 8 8 9 10 12 13 15 15 15 15 15 15 15 15 15 15 16 16 17 18 19 19 20 20 20 21 21 21 21 21 21 21 21 20 19 18 17 15 14 12 11 11 11 12 13 15
28 29 29 28 28 29 30 29 28 27 25 24 23 21 20 19 18 17 17 16 15 14 13 14 14 14 13 12 11 10 11 11 10 9 8 6 5 5 5 4 4 3 2 2 1 0 1 2 2 3 4 3 2 1 3 5 6 7 8 9 11 13 15 16 15 15 14 14 14 14 14 15 16 16 17 18 19 20 20 21 20 20 20 20 20 20 20 20 19 19 18 17 16 15 14 12 11 11 11 12 13 15 16
Wind_Direction
120 125 130 130 127 123 117 113 110 109 106 103 101 100 99 98 97 95 92 90 89 89 88 86 83 81 80 79 78 76 75 71 66 61 57 58 65 72 75 78 80 79 75 68 62 57 54 49 46 48 58 83 112 123 128 131 133 132 126 113 89 61 47 50 50 48 50 54 56 49 31 17 13 17 23 41 29 16 22 22 18 13 9 359 321 267 255 259 265 272 285 298 310 320 328 340 352 10 176 211 244 253 250
122 127 131 131 128 123 118 114 111 108 106 104 103 103 102 99 96 93 90 89 89 90 91 90 88 85 84 83 82 82 81 78 72 64 62 65 71 76 78 77 76 72 68 64 61 57 53 47 47 52 60 77 110 124 129 129 128 125 117 101 72 51 47 50 48 46 49 53 54 47 26 7 0 357 351 24 14 354 346 354 353 348 352 349 345 338 329 315 308 299 285 286 296 310 323 328 328 321 303 280 257 243 241
125 129 133 132 129 124 118 114 110 109 108 109 109 107 103 100 97 95 94 93 92 92 92 93 93 94 94 94 93 93 91 91 86 79 74 75 77 78 77 75 71 68 65 65 64 61 56 51 53 61 68 80 102 118 124 124 121 115 103 86 62 46 46 49 46 40 42 47 49 44 25 9 4 1 357 19 21 1 334 329 320 322 335 334 323 313 316 313 316 319 307 289 290 302 314 300 293 303 315 321 314 289 268
128 131 134 133 129 124 119 114 111 110 109 108 107 106 103 100 99 99 99 96 95 94 93 95 97 99 101 101 102 101 100 98 95 89 84 82 79 77 74 71 69 66 65 68 69 65 59 56 60 68 75 84 96 108 115 117 113 103 88 70 52 44 48 52 47 36 36 37 37 33 25 13 360 351 356 21 25 359 328 311 294 284 283 292 284 274 262 248 250 279 292 292 286 285 287 276 280 296 318 333 340 338 326
131 133 133 132 129 124 120 117 114 112 109 106 105 103 103 102 101 100 100 99 99 99 98 98 97 97 98 98 98 98 98 96 94 91 88 84 80 76 71 68 66 65 68 73 73 68 62 60 65 73 81 88 93 99 105 107 101 89 73 56 47 47 52 57 55 47 38 28 20 17 15 5 344 338 351 23 40 333 299 288 277 269 273 245 245 251 252 242 233 224 234 238 255 266 263 267 280 299 315 322 323 323 325
131 133 133 131 129 125 121 119 117 115 113 110 108 106 104 105 105 104 103 104 103 103 103 101 97 94 94 94 95 95 95 95 94 92 88 85 79 72 67 64 65 68 74 78 76 69 64 64 68 75 83 89 93 94 95 94 87 73 59 49 48 52 56 56 53 47 40 28 21 16 14 354 338 339 359 26 337 295 300 292 280 280 333 269 245 233 229 254 285 279 247 229 222 228 248 267 279 292 299 301 300 298 298
134 135 134 132 130 127 124 122 121 118 116 115 116 115 114 113 111 109 107 108 105 102 101 99 96 94 94 94 95 95 95 95 93 91 88 83 76 69 64 64 68 74 79 81 76 69 65 66 71 77 80 84 87 88 86 81 73 61 51 46 49 56 58 52 46 40 34 26 21 20 19 12 4 359 8 9 337 322 327 322 332 350 355 323 309 309 18 3 329 310 291 267 246 231 234 260 274 279 283 290 293 293 289
139 139 139 136 133 129 126 125 124 123 122 120 122 124 124 120 115 113 112 109 104 100 99 97 95 94 94 96 96 97 97 95 92 89 84 79 73 67 65 69 75 80 82 79 74 68 65 67 72 77 78 78 78 78 77 72 64 54 45 42 47 57 59 48 36 29 25 21 17 16 17 16 10 5 7 8 353 343 343 348 358 2 0 353 355 3 10 358 345 341 338 323 290 252 247 264 273 276 277 279 279 275 270
145 145 144 141 136 132 130 130 129 128 127 125 126 129 127 122 116 113 112 107 102 99 97 96 95 94 95 97 99 99 98 94 91 86 82 76 72 69 71 77 82 83 79 74 69 66 65 67 70 73 75 72 68 65 65 61 56 47 38 35 39 52 59 45 30 20 18 16 13 13 14 16 14 10 10 13 2 353 351 0 4 5 4 3 8 8 358 352 353 1 9 11 4 314 276 274 275 276 277 276 272 265 257
149 150 148 144 139 135 134 134 133 131 128 127 126 126 124 119 115 112 109 105 101 98 96 95 94 95 96 98 99 99 96 93 89 84 80 76 74 76 80 85 85 81 74 68 64 64 65 65 65 67 67 65 59 48 40 42 39 33 28 26 29 41 53 41 26 16 14 14 14 15 19 23 25 25 20 22 15 350 347 357 357 357 360 357 2 7 8 8 9 12 19 22 18 357 314 291 285 284 285 285 287 298 327
152 152 149 146 142 138 136 137 136 133 129 126 123 122 122 118 114 111 108 104 99 96 94 94 95 96 96 97 97 96 94 91 87 83 80 78 79 82 87 89 85 77 68 62 61 63 65 64 61 59 56 51 39 19 3 6 7 10 13 16 20 32 45 34 22 14 13 17 25 32 35 39 44 44 39 30 6 354 1 358 354 349 344 341 351 8 23 24 28 31 31 32 29 20 6 347 340 343 346 340 346 355 0
152 152 151 149 144 141 140 140 138 136 132 129 126 124 122 118 115 111 106 102 97 93 93 96 99 100 99 97 95 93 90 88 85 81 79 79 82 87 91 90 83 73 64 59 60 63 65 64 60 53 44 31 13 353 340 336 341 347 356 6 14 25 39 28 19 14 15 22 36 50 53 57 61 63 63 62 55 41 27 15 7 360 355 356 8 22 36 37 41 45 47 44 38 34 36 35 32 27 22 10 5 4 354
151 152 153 152 148 144 142 140 138 135 132 129 127 124 122 119 115 111 105 98 93 91 95 100 104 104 101 97 93 89 85 81 78 76 76 79 84 89 91 88 81 72 63 59 59 62 65 63 58 49 36 16 352 333 322 321 320 331 345 0 11 24 33 26 17 14 18 29 45 58 63 68 69 69 69 67 63 58 49 30 22 23 20 20 28 35 42 46 52 56 58 55 49 45 44 47 48 46 41 37 28 19 9
150 152 154 153 150 146 142 139 135 132 129 127 125 123 122 119 116 110 103 96 92 93 98 104 108 107 102 96 89 83 77 72 68 67 70 76 83 89 91 88 82 75 67 62 61 61 62 60 54 45 32 8 336 314 307 310 312 324 344 1 13 24 30 23 16 15 21 36 52 61 69 72 72 69 67 62 61 61 60 40 32 41 51 44 42 45 50 53 59 63 64 59 52 48 49 50 50 51 54 53 48 43 36
150 152 153 152 148 144 140 136 133 130 128 126 125 123 122 119 116 110 102 96 94 97 101 106 108 106 100 93 85 78 71 64 59 58 61 68 79 87 90 89 85 80 73 66 61 58 55 50 44 34 24 7 336 308 302 306 314 329 351 7 19 27 29 23 18 18 26 42 58 64 67 68 69 66 62 59 58 60 63 55 56 64 65 59 55 53 57 60 64 66 65 59 55 55 55 53 49 47 50 54 56 57 55
151 151 151 149 145 142 139 135 133 130 129 127 125 124 122 120 116 110 104 100 99 101 103 105 104 102 96 91 85 79 71 63 58 55 54 59 69 80 86 86 84 80 74 65 59 52 41 35 25 15 6 357 337 314 309 319 327 341 0 16 25 30 30 25 22 23 32 44 55 62 65 67 66 63 61 59 59 62 67 65 67 70 69 66 62 59 60 63 65 65 59 57 55 52 51 48 41 39 44 50 53 56 56
153 152 150 147 144 141 139 136 134 132 130 128 126 124 123 121 117 112 107 105 105 104 103 101 99 96 93 90 87 81 73 67 62 59 56 55 60 68 75 73 69 61 53 49 48 35 15 4 358 356 349 346 335 323 321 337 348 358 10 22 29 33 33 29 27 32 40 49 56 60 63 66 67 66 64 62 61 65 72 71 70 70 70 68 66 64 63 65 66 64 56 59 61 58 50 45 41 39 41 44 46 48 48
155 153 151 149 146 144 142 140 137 135 132 130 127 125 124 122 119 115 111 110 109 106 102 99 96 94 92 91 88 84 78 73 70 67 64 59 56 55 55 46 35 24 20 19 21 8 345 335 337 340 339 337 331 325 330 342 359 8 14 23 32 38 37 33 33 38 46 51 56 60 63 66 68 68 70 68 68 73 80 81 76 70 69 68 68 67 65 67 67 65 62 62 60 57 54 51 49 46 44 43 41 41 40
157 156 155 153 150 148 146 144 142 139 135 132 130 128 126 123 120 116 113 112 110 105 100 96 95 95 95 93 90 87 84 82 80 77 73 65 53 39 26 15 10 6 2 1 2 356 343 327 327 334 336 335 328 326 334 348 1 7 11 19 34 44 42 37 37 42 50 54 57 60 64 67 69 71 73 72 73 77 80 82 79 74 70 69 69 68 67 67 67 66 64 61 59 57 55 52 50 50 48 46 43 40 37
160 160 159 158 155 153 151 149 147 144 140 137 134 130 127 123 119 115 113 112 109 105 98 95 97 98 99 96 93 91 91 91 93 92 88 73 47 17 360 356 360 2 359 355 356 357 354 335 330 335 341 337 328 319 326 342 356 360 3 13 37 50 47 42 41 46 52 56 58 62 64 67 70 72 72 72 72 74 76 75 74 72 70 67 65 65 66 64 63 62 61 59 57 54 50 47 46 45 44 43 41 37 34
164 164 164 162 160 158 156 155 153 150 146 142 137 131 126 122 118 114 113 112 110 106 101 97 98 100 101 103 103 105 106 109 116 126 130 80 359 348 346 347 355 4 2 353 354 359 2 346 338 339 343 339 327 316 319 333 346 351 355 6 40 58 52 46 44 48 54 57 60 63 65 67 68 69 69 69 68 69 70 68 67 65 62 59 58 58 59 57 56 53 52 52 49 45 42 39 36 34 33 32 31 29 25
169 169 168 167 166 165 163 162 159 156 152 145 138 130 124 121 119 116 115 115 114 111 106 104 103 107 111 119 128 137 144 154 187 225 246 281 309 329 344 350 357 6 5 356 359 6 10 355 344 343 343 336 326 318 319 329 339 346 350 2 48 69 59 49 47 50 55 55 58 61 63 64 66 65 64 64 63 63 63 61 58 56 54 50 48 49 48 49 48 47 44 40 36 33 30 26 23 20 20 18 16 14 12
174 174 174 173 171 170 168 166 162 159 153 147 138 129 122 121 121 120 119 119 118 116 115 117 121 127 138 157 176 202 233 273 300 301 301 311 319 327 340 359 10 13 9 6 11 20 22 1 349 348 344 334 322 314 317 324 334 343 351 0 53 79 66 54 49 51 52 52 55 57 58 60 61 61 60 59 57 57 56 53 51 48 46 42 40 39 38 39 40 40 37 32 26 21 18 13 10 8 7 6 4 1 358
179 179 179 178 176 173 170 166 162 157 152 147 140 131 124 122 123 124 124 123 123 126 131 136 145 158 180 201 223 254 291 323 349 12 28 29 18 1 338 5 33 34 23 17 24 32 29 1 355 355 350 337 323 313 313 319 330 343 353 360 42 89 78 60 52 51 52 51 52 53 54 55 56 56 55 52 51 49 48 45 41 39 36 33 32 30 28 26 27 28 27 24 18 11 5 1 358 355 355 354 352 350 347
181 183 184 182 179 174 168 163 158 153 150 147 142 135 129 126 126 127 128 131 135 141 149 157 170 187 203 219 245 287 322 344 360 13 26 35 38 37 27 53 79 69 45 26 25 32 30 1 360 4 3 349 329 318 316 321 332 344 355 358 12 92 99 75 60 53 52 51 51 51 50 50 50 50 49 46 43 40 37 33 30 27 25 22 20 19 17 14 12 11 12 11 7 2 355 349 345 343 342 342 342 340 337
181 185 187 185 179 173 166 159 154 151 149 148 144 140 135 133 133 136 141 147 154 161 168 177 193 210 221 244 283 324 342 351 0 12 22 31 38 42 48 76 109 108 92 40 16 16 20 357 3 9 11 4 346 331 328 330 337 346 353 355 357 40 122 104 77 58 51 50 49 48 47 46 45 44 43 39 36 32 26 21 16 11 10 12 12 9 6 3 1 359 357 356 354 351 347 343 339 336 333 331 331 331 328
183 187 189 187 180 173 164 158 152 149 148 147 146 145 145 145 146 151 159 168 176 183 189 196 205 217 237 269 314 343 352 356 4 15 23 27 33 39 47 64 99 130 135 259 315 345 7 353 358 6 10 8 360 347 343 342 344 348 353 355 357 2 93 132 105 73 54 49 46 45 44 42 40 37 34 32 30 26 20 14 8 4 3 3 2 359 355 353 350 347 346 345 343 341 338 336 333 331 326 326 326 326 324
185 191 192 188 181 173 166 159 154 150 148 148 151 155 159 158 161 166 173 183 192 199 201 203 208 217 236 277 339 2 8 11 19 24 21 21 25 31 39 48 58 69 19 278 295 327 1 353 352 357 4 6 4 358 353 349 348 349 353 360 5 7 7 4 146 104 63 49 44 41 40 38 35 32 29 25 22 19 13 8 3 359 354 351 351 351 349 344 340 339 341 340 339 336 333 331 330 328 324 323 322 321 321
189 193 193 186 179 173 168 163 159 156 153 154 157 163 167 169 171 175 181 192 200 205 208 208 212 219 234 342 22 28 32 49 62 51 22 12 14 18 25 33 37 35 13 331 320 340 6 6 351 350 358 0 1 360 355 351 348 349 354 4 13 13 4 351 331 300 76 52 45 41 39 37 34 31 26 19 14 11 6 3 359 355 352 351 349 346 343 341 340 338 337 336 334 333 332 331 328 325 323 322 321 321 320
192 192 187 180 175 171 169 166 164 162 161 161 162 166 171 175 178 181 186 193 199 205 212 218 227 243 332 19 36 43 50 77 103 99 49 10 3 6 10 17 24 27 26 27 7 356 5 19 5 346 351 354 357 358 355 349 347 349 356 7 14 10 0 350 339 329 324 48 48 43 39 36 34 30 26 21 15 8 3 0 357 353 352 351 349 347 344 340 338 337 335 333 331 329 329 328 327 324 324 322 321 320 319
188 184 178 172 169 168 168 168 168 168 169 170 170 170 175 180 184 187 190 194 198 202 207 220 242 296 350 24 43 49 56 86 114 116 87 32 6 3 2 3 9 19 30 54 44 9 353 10 10 352 346 348 353 360 359 351 348 351 358 5 7 3 357 348 342 341 348 35 50 46 40 35 32 30 26 21 16 10 2 359 357 355 353 351 349 346 342 340 338 336 335 333 332 331 330 329 327 326 325 323 322 321 321
180 175 171 167 165 166 168 170 171 173 175 176 175 175 178 184 188 190 193 195 196 199 204 216 234 285 3 43 50 50 54 83 113 116 96 61 27 11 4 357 357 5 21 57 69 30 347 357 10 1 340 345 355 11 21 11 2 1 1 0 360 359 356 351 347 348 1 29 43 43 38 31 27 24 22 19 15 8 2 359 358 355 353 349 346 345 343 341 339 338 336 335 333 332 331 330 329 327 326 326 325 324 323
173 170 168 166 165 166 171 173 174 176 179 180 179 178 179 183 187 189 190 190 189 189 190 194 200 107 51 58 53 49 49 71 109 121 107 88 56 33 20 0 350 351 3 30 80 50 332 345 10 17 331 344 2 31 46 36 18 7 3 360 358 358 357 354 352 354 5 15 21 24 23 19 14 11 8 6 4 1 356 355 355 353 351 348 347 345 344 342 340 338 337 336 335 333 332 331 330 329 328 328 327 325 324
171 169 170 168 169 171 176 178 179 179 180 180 179 178 178 181 184 187 188 186 181 174 164 144 100 58 48 52 50 44 41 52 102 140 142 144 128 75 52 18 352 343 347 351 344 285 300 319 16 156 297 332 1 36 41 30 18 8 4 1 359 357 357 356 352 353 357 360 360 358 358 0 0 359 357 354 352 349 347 347 349 350 349 347 347 346 344 342 341 340 339 338 337 335 334 333 332 332 330 328 327 326 325
173 172 172 172 172 175 180 183 183 182 180 178 176 176 179 181 183 185 185 180 172 158 136 98 68 49 37 33 30 25 24 29 66 171 194 209 220 205 152 61 3 343 339 334 329 319 313 297 177 187 253 296 330 359 9 14 13 8 4 4 1 357 354 352 351 351 351 350 347 345 343 345 348 351 351 349 347 344 344 344 345 347 349 348 346 345 344 342 342 342 341 340 339 337 334 333 332 331 330 329 328 327 326
176 174 173 174 175 179 183 186 186 183 180 177 175 175 178 179 181 182 180 175 161 140 116 94 85 83 75 320 319 336 351 4 10 264 238 244 238 226 204 192 343 342 336 325 323 330 334 308 172 187 227 244 274 320 345 1 6 7 5 6 3 356 349 345 344 345 345 343 342 340 339 340 344 347 349 348 348 348 348 347 346 344 345 347 347 347 346 345 344 342 342 340 339 337 335 334 333 331 329 328 328 328 327
176 175 175 177 180 183 185 186 186 184 180 178 176 176 177 177 177 176 171 163 149 133 121 115 119 135 177 234 283 316 330 343 351 346 326 286 248 223 211 212 207 212 346 319 317 326 338 353 163 188 219 229 238 269 318 341 355 7 12 8 2 351 339 334 334 335 336 337 336 336 337 340 345 350 352 354 356 357 358 355 351 348 346 347 349 350 350 349 347 345 343 341 340 338 337 335 333 332 331 330 329 329 330
177 176 177 179 184 187 187 185 184 182 181 179 179 179 178 174 172 169 164 157 152 147 143 138 142 156 179 212 274 318 327 329 332 334 333 325 268 200 187 181 175 139 32 321 315 319 334 131 161 190 226 231 232 238 257 288 312 335 356 359 348 332 324 322 324 326 330 332 332 333 336 342 349 355 359 3 6 7 4 359 354 350 348 350 352 353 352 351 350 347 346 343 341 340 339 338 336 335 334 333 333 333 332
179 179 179 182 186 188 187 184 181 180 181 180 180 181 182 174 168 165 164 161 161 160 161 158 159 165 174 187 211 288 308 309 310 313 316 317 302 157 143 128 111 84 54 341 317 316 323 246 177 196 231 233 229 230 236 245 257 272 294 308 313 311 308 308 312 319 324 328 329 331 336 345 355 1 5 9 11 9 4 358 354 350 349 351 352 352 351 350 348 347 346 344 343 342 341 340 339 339 338 337 337 336 333
181 182 182 184 186 187 186 182 180 180 182 181 179 179 180 174 168 165 166 166 167 169 174 177 177 177 183 194 208 230 263 278 287 294 297 298 274 151 132 115 98 77 57 359 319 308 307 261 204 203 221 227 228 229 233 240 247 254 264 277 287 291 292 295 303 312 321 325 327 330 338 350 358 2 6 9 10 7 2 358 355 353 352 352 352 350 348 346 345 345 344 343 342 342 342 342 342 342 341 340 339 337 335
181 183 184 185 186 185 183 180 180 181 182 182 179 176 175 173 170 167 168 167 167 170 177 189 197 198 199 214 226 240 259 270 279 285 287 281 238 165 142 128 111 92 69 2 308 292 279 255 226 216 219 224 226 227 234 246 257 262 262 268 274 279 283 290 300 311 320 325 328 333 342 352 358 360 2 4 4 2 359 358 357 356 356 354 352 349 347 346 345 344 343 342 342 342 343 344 344 344 344 343 341 340 338
182 183 185 184 184 183 181 179 180 182 182 181 178 176 174 173 170 168 166 164 162 163 170 181 198 209 212 222 238 255 267 274 280 285 285 268 214 172 154 142 131 121 109 350 279 268 258 252 239 229 228 229 229 232 241 253 263 269 273 277 280 283 288 297 309 319 326 330 333 339 347 352 355 355 356 357 356 355 354 354 355 356 356 355 352 350 349 348 346 345 343 342 342 342 342 344 345 346 346 344 344 343 342
183 185 185 184 182 181 180 179 180 181 181 179 178 178 175 173 170 166 163 161 157 155 155 159 167 177 185 196 258 290 288 288 289 290 283 248 186 163 150 142 135 132 136 182 242 249 250 253 249 244 242 239 237 240 247 256 262 272 291 301 299 296 299 309 321 329 332 334 338 343 348 350 351 350 349 349 349 349 349 350 350 350 351 352 351 350 349 348 346 345 344 342 341 341 341 342 344 344 345 345 345 345 346
185 186 186 185 183 181 181 180 180 181 180 179 178 178 176 173 170 166 164 161 156 149 144 143 142 138 126 91 33 357 338 327 319 309 275 181 158 146 140 135 134 140 152 189 228 239 245 256 264 265 255 246 239 235 238 246 257 273 293 304 302 298 300 312 325 333 335 336 339 343 346 346 344 342 341 341 342 343 345 346 346 345 346 347 348 348 348 347 346 345 343 342 340 339 338 339 340 342 343 344 345 346 348
185 185 186 185 184 182 181 181 181 180 180 178 178 177 175 173 171 170 167 163 158 151 141 138 136 129 110 71 39 18 4 351 342 332 219 168 157 148 142 137 144 163 176 198 220 233 243 260 277 279 261 236 219 210 212 229 250 270 288 297 297 294 299 312 326 334 336 337 339 340 339 336 334 333 333 334 336 338 340 341 342 342 342 343 344 345 346 345 345 344 343 340 338 336 336 336 337 339 340 342 343 345 347
184 183 183 184 184 183 182 182 182 181 180 178 177 175 173 173 174 174 171 165 160 155 147 142 137 127 107 76 47 30 16 1 347 324 252 194 175 166 157 156 181 193 193 200 214 228 239 265 284 280 214 179 173 177 190 219 247 268 284 291 292 290 297 312 327 334 336 335 334 331 327 323 323 324 326 328 330 333 335 336 337 338 338 340 341 342 343 342 342 342 340 339 337 334 333 333 334 335 337 339 340 342 345
185 183 182 183 183 183 182 182 183 183 181 178 176 174 172 173 174 175 172 167 161 157 152 148 141 129 111 86 61 41 29 12 352 324 266 225 207 191 161 167 197 201 193 194 206 219 234 263 274 159 140 138 141 152 181 221 249 266 280 287 284 281 287 306 321 330 332 329 324 319 315 314 315 317 319 322 325 328 330 331 332 333 334 336 338 339 340 339 339 339 338 337 335 332 331 331 331 332 334 336 337 339 341
185 184 183 183 183 182 182 182 183 183 181 179 177 175 173 173 173 173 172 169 162 157 154 153 149 138 123 102 76 57 43 27 10 351 332 208 165 147 127 136 177 193 185 184 192 204 222 238 157 133 129 127 129 141 185 228 248 263 273 278 274 264 266 278 296 309 317 316 312 309 307 307 309 311 314 317 320 323 324 326 327 328 329 331 333 335 336 336 336 336 336 335 333 330 329 328 329 329 331 332 333 335 337
184 183 183 183 182 181 180 181 182 182 182 181 179 176 174 171 168 168 170 169 164 159 157 158 159 157 148 125 88 64 52 38 27 16 11 107 126 122 116 110 114 138 155 165 173 182 188 170 142 133 128 127 131 159 218 244 253 262 270 275 272 268 269 275 286 298 306 308 306 304 304 304 305 307 310 313 316 318 320 321 322 323 325 326 328 330 332 332 333 334 335 333 331 329 328 327 327 327 327 328 329 331 333
183 181 180 180 180 180 178 179 180 180 180 180 178 175 171 167 165 165 167 168 167 163 159 159 162 167 168 151 98 63 51 42 36 32 43 68 61 64 96 81 86 105 131 146 155 159 155 151 146 142 139 144 174 226 244 255 263 270 275 278 277 277 280 285 293 301 306 307 306 305 304 303 304 306 308 311 313 315 316 317 317 318 320 322 323 325 327 328 329 331 332 332 330 328 326 325 325 324 324 324 325 326 328
185 182 180 179 179 179 178 178 179 179 178 177 175 171 167 165 165 167 168 169 169 167 164 160 161 167 171 156 118 70 49 42 39 39 42 49 47 49 67 49 74 97 111 134 149 154 157 158 160 162 169 195 247 262 257 257 265 277 285 287 288 290 293 298 304 308 310 311 310 309 307 306 306 307 309 311 312 313 314 314 314 315 316 317 319 321 322 323 325 327 329 330 329 327 324 322 321 320 320 320 320 322 323
187 185 182 179 178 177 178 178 179 180 179 175 172 169 167 166 168 170 172 171 169 169 168 163 160 162 166 163 148 105 58 42 40 46 62 71 73 76 91 102 80 30 5 74 131 160 165 171 173 177 194 238 276 279 255 229 241 292 309 310 308 308 310 312 314 315 315 314 314 312 311 310 310 311 312 313 313 313 313 312 312 312 313 314 315 317 318 319 321 324 326 328 328 326 322 319 317 316 315 316 317 318 319
188 186 183 180 178 177 177 178 181 183 181 177 172 169 168 169 171 173 174 173 171 170 169 167 164 160 158 160 152 129 86 48 43 48 63 87 108 106 84 81 86 112 185 79 7 336 308 204 197 200 215 275 346 84 125 124 112 76 29 5 348 337 329 324 321 320 319 319 319 318 317 316 316 316 316 316 315 315 313 312 312 312 313 313 314 314 315 316 317 319 322 324 325 325 321 317 313 312 311 312 313 314 315
188 186 183 181 179 177 177 178 181 183 183 180 175 171 170 171 173 174 175 176 175 172 171 170 170 167 160 156 148 137 120 78 52 49 54 71 98 108 90 85 121 169 158 117 106 327 306 320 314 283 250 233 109 115 128 119 93 56 30 21 9 358 348 340 334 332 332 333 331 328 325 323 322 321 320 319 318 316 314 313 312 313 313 313 313 313 313 313 314 315 317 319 321 321 319 314 310 308 307 308 308 309 310
187 186 185 183 180 178 179 180 181 182 183 182 178 174 172 172 173 175 177 179 179 177 173 171 174 177 171 163 158 150 137 118 81 60 56 65 70 81 111 129 112 55 41 54 100 188 249 288 303 297 269 193 155 154 168 302 331 331 338 346 348 348 347 345 341 340 340 339 335 331 328 327 325 324 322 321 319 317 316 314 314 313 313 313 312 312 311 310 310 311 312 314 315 316 315 312 308 305 303 303 303 304 305
186 186 185 184 182 180 180 180 180 180 181 181 180 177 174 172 172 174 177 181 183 182 179 175 175 179 180 171 165 159 150 140 125 98 75 71 76 84 96 117 117 92 51 16 244 224 233 293 316 311 280 181 203 305 307 317 325 331 335 339 339 338 335 332 330 327 326 323 321 321 321 322 322 322 321 320 319 317 316 315 314 314 313 312 311 311 310 309 308 307 308 309 310 310 310 309 305 301 298 299 298 299 300
186 185 184 184 183 182 180 180 179 179 179 181 180 178 175 172 172 173 176 179 182 184 183 180 177 176 178 177 172 166 160 150 142 133 110 86 80 82 85 79 105 141 137 175 202 211 198 32 44 17 313 310 304 305 316 319 326 335 340 341 338 332 326 322 319 317 316 315 314 314 314 315 317 317 317 316 316 315 314 314 313 313 312 312 311 309 308 307 306 305 305 305 305 306 306 305 302 297 295 294 294 295 298
185 184 183 183 183 182 181 179 178 178 178 180 180 178 175 173 172 172 174 176 178 181 184 184 181 176 174 176 177 174 168 159 150 143 136 118 98 85 79 78 79 75 72 104 131 140 142 92 88 109 315 320 306 272 298 318 327 331 336 335 329 322 317 314 313 312 311 311 311 311 311 311 312 313 312 312 311 311 311 310 310 311 310 310 309 308 307 306 305 304 303 302 302 302 301 300 297 293 292 291 291 293 297
183 183 182 182 182 182 181 180 178 178 178 179 180 179 175 174 173 172 172 172 174 176 181 184 183 178 173 173 175 175 171 165 158 151 145 136 121 104 92 82 73 65 63 65 69 83 107 103 128 144 97 341 314 307 304 317 325 327 327 324 318 313 310 310 310 310 310 310 311 311 311 310 310 310 309 308 307 307 307 307 307 308 308 308 308 307 306 305 304 302 301 299 298 298 298 296 292 290 289 289 290 293 297
182 181 180 180 181 181 180 179 179 178 179 179 180 179 176 174 172 172 171 170 170 173 179 182 182 178 175 173 174 174 169 166 164 162 157 148 136 129 123 112 99 83 69 62 51 35 25 97 164 159 136 155 278 303 308 307 312 317 316 313 311 309 309 311 312 313 314 314 314 314 313 312 310 308 307 306 305 304 304 305 305 306 307 308 308 307 306 304 302 300 298 296 295 295 294 291 288 286 286 288 292 296 299
181 180 179 179 180 180 180 179 179 179 179 180 180 179 176 173 172 171 171 169 169 172 177 180 179 176 173 173 175 176 172 166 165 168 170 163 153 150 154 154 146 137 131 122 105 308 287 282 245 215 193 169 172 247 282 296 306 310 305 305 307 309 311 314 317 319 319 320 320 318 316 313 310 308 306 304 304 304 305 306 307 309 310 310 310 308 306 304 301 299 296 294 293 292 290 287 284 284 286 291 296 299 301